Theta_e
331 333 335 336 335 335 335 335 336 333 330 331 329 328 329 330 331 332 332 331 332 331 331 331 331 330 330 329 329 332 333 333 332 332 330 329 330 329 328 327 327 325 324 322 320 317 314 313 312 311 311 310 310 310 310 309 309 308 307 307 306 305 304 305 305 305 305 306 306 307 307 307 307 307 308 308 308 308 308 308 308 308 307 307 307
331 334 336 336 334 334 334 333 333 330 327 327 326 327 330 331 331 332 333 332 332 331 332 332 331 331 330 330 331 333 332 332 332 330 326 328 331 330 328 328 327 326 324 323 321 318 315 313 313 314 314 313 313 312 311 310 310 309 309 308 307 305 305 305 304 304 305 305 306 306 306 307 307 307 307 307 308 308 308 308 308 308 308 307 307
334 336 335 334 331 330 330 329 328 326 326 328 328 331 333 333 333 335 334 334 334 332 332 333 331 331 331 331 332 332 332 332 331 329 324 325 329 329 329 328 329 328 324 323 322 319 316 315 318 319 319 318 316 314 312 311 310 310 309 309 307 306 305 305 305 304 305 305 305 305 306 306 306 307 307 307 308 308 308 308 308 308 308 308 307
335 338 335 334 333 331 329 327 327 326 328 330 329 331 335 335 333 333 333 334 334 332 333 333 332 332 331 331 332 331 332 331 330 328 324 324 325 325 328 328 329 328 325 323 322 319 317 319 323 324 324 323 319 316 313 310 310 309 309 309 308 307 306 305 305 305 305 305 304 305 305 305 306 306 306 307 307 307 308 308 308 308 308 308 308
334 336 336 336 335 334 332 329 329 329 329 330 329 330 334 334 331 329 330 332 333 333 333 333 332 333 332 332 332 331 332 331 329 327 324 326 326 325 326 327 329 328 325 323 322 321 321 324 326 326 326 326 322 317 314 312 309 308 308 308 307 307 306 306 305 305 305 304 304 304 304 305 305 305 305 306 306 307 307 308 308 308 309 309 308
332 333 335 337 335 334 335 332 331 329 329 330 329 330 333 333 331 331 331 332 333 333 333 333 332 332 332 332 332 332 332 331 329 328 325 326 327 325 325 327 329 328 326 325 323 324 325 326 326 327 328 328 326 320 315 314 312 310 309 308 307 307 306 306 305 305 305 305 304 304 304 304 304 305 305 305 305 306 307 308 308 309 309 309 309
333 332 332 336 336 335 336 334 332 329 329 329 330 331 331 331 333 333 332 332 334 333 333 333 333 332 332 333 333 332 331 330 329 327 325 325 326 326 325 327 328 328 328 327 326 325 325 326 326 326 327 328 328 324 318 318 317 316 315 314 312 311 310 309 308 307 306 305 305 304 304 303 303 304 304 304 305 306 307 308 308 309 309 309 309
332 330 331 334 336 335 336 334 329 328 329 328 329 332 330 330 333 333 333 333 333 333 333 333 332 332 332 333 333 331 329 328 327 326 326 327 327 327 326 327 328 328 328 328 327 325 323 323 325 326 328 327 328 326 322 322 322 322 322 321 320 319 319 318 317 315 313 312 309 307 305 304 304 304 305 306 307 308 308 309 309 309 309 309 309
330 329 329 333 335 334 335 332 329 329 329 327 330 333 330 327 328 330 332 333 333 333 333 332 331 331 332 333 332 330 328 327 325 325 327 327 327 327 326 327 327 327 328 327 328 327 323 321 322 325 327 327 327 326 325 325 325 325 325 325 325 325 325 324 324 324 323 322 318 315 311 308 307 307 307 308 309 309 309 309 309 309 309 309 310
330 330 329 332 335 335 334 332 330 329 328 328 331 333 330 326 325 327 330 333 333 333 332 332 332 332 332 333 331 328 327 326 325 326 326 326 326 327 326 326 326 325 326 326 327 327 325 323 322 323 324 324 325 326 326 327 327 327 327 326 326 326 326 326 326 326 326 326 325 322 318 314 312 311 310 310 310 310 310 310 310 310 310 309 309
331 331 330 332 334 335 333 331 331 329 327 329 331 330 329 327 327 328 329 331 333 333 332 331 331 331 332 332 330 328 327 326 325 325 326 327 327 328 327 326 326 325 325 325 326 326 326 326 326 325 322 321 324 326 326 326 326 327 327 327 326 325 326 326 326 326 326 325 325 325 323 320 317 315 315 313 313 313 312 312 312 311 310 309 309
332 332 331 333 335 334 333 330 332 330 326 330 332 329 327 328 329 328 328 330 331 332 331 331 330 330 331 331 330 329 328 327 326 325 326 328 328 328 328 328 327 327 325 325 326 326 326 327 327 326 322 319 322 324 325 325 326 326 326 326 326 325 325 326 325 326 326 325 325 325 325 323 322 320 319 318 317 317 317 316 316 314 311 309 309
331 332 330 333 334 333 333 331 331 330 327 330 332 328 327 329 330 327 327 329 330 331 330 330 331 330 330 330 330 329 328 328 327 327 327 328 328 328 328 328 328 327 326 325 325 325 325 327 327 326 325 322 321 323 323 324 325 325 325 326 326 325 325 325 325 325 326 325 324 325 324 324 324 323 323 322 321 321 321 321 320 319 315 311 310
328 330 330 332 332 332 333 331 331 330 329 329 328 326 326 329 329 328 329 329 331 331 330 330 331 331 330 330 330 329 328 328 328 328 328 327 327 328 328 327 327 326 326 325 326 326 326 327 327 326 326 326 324 324 325 325 325 325 326 324 324 325 325 324 324 325 325 324 324 325 325 324 324 324 324 324 324 323 323 323 323 322 321 317 317
328 329 330 332 332 331 331 329 330 330 329 328 326 326 327 328 329 330 330 330 331 329 328 329 330 330 330 330 330 329 329 329 328 327 327 326 326 328 328 327 327 327 327 327 327 327 327 327 326 325 326 326 325 326 326 325 325 325 325 324 323 324 325 324 324 324 324 325 325 325 325 325 325 324 324 324 325 324 324 324 323 323 322 322 323
329 329 329 330 330 330 330 329 329 329 329 328 326 326 327 327 329 330 331 331 331 329 327 329 329 330 330 330 329 329 329 329 328 327 326 326 327 327 328 328 327 327 328 328 328 327 327 327 326 325 326 326 326 326 326 325 324 324 324 324 323 323 324 324 324 325 325 325 325 324 325 325 325 324 324 324 325 324 323 324 324 323 322 323 324
328 329 330 329 328 329 330 329 328 327 329 329 328 327 327 328 329 329 330 332 332 330 328 327 328 330 330 329 329 329 329 329 328 327 327 327 327 327 328 327 327 327 328 329 328 327 326 326 326 325 326 326 326 326 326 326 325 324 324 323 323 323 323 323 323 322 322 322 323 323 323 322 322 322 323 324 324 324 324 324 325 324 323 324 324
327 330 330 328 328 329 330 329 328 327 328 329 329 329 329 330 329 328 329 330 330 331 330 327 327 328 328 328 328 329 329 329 329 328 327 327 327 327 327 326 327 327 328 328 328 327 327 326 326 326 326 326 326 326 326 326 325 324 323 322 322 323 322 321 322 320 318 317 317 316 315 315 317 318 320 321 322 324 324 324 323 323 323 324 324
325 329 327 326 327 329 330 330 329 328 328 328 328 329 330 331 330 329 330 329 329 331 331 329 328 328 328 328 329 329 328 329 329 329 327 327 328 327 327 327 327 327 328 328 326 326 326 326 327 326 326 326 325 326 325 325 324 322 322 322 322 320 315 314 316 315 312 310 308 307 308 310 312 313 314 315 317 319 319 318 316 316 318 318 317
324 326 325 325 326 327 329 329 329 329 329 329 328 328 329 330 329 328 330 330 329 330 330 330 329 330 329 328 329 330 329 328 328 327 328 328 328 327 327 328 327 327 326 326 325 325 326 326 327 326 326 326 325 326 326 324 322 320 319 317 315 312 308 307 308 308 307 307 307 307 307 308 308 308 309 309 310 311 311 310 309 309 310 309 309
326 327 326 326 325 324 326 327 329 329 329 330 330 328 328 329 328 327 328 328 328 329 330 330 330 330 329 327 328 329 329 329 327 327 328 328 328 327 328 328 326 325 325 325 325 325 325 326 326 326 326 326 325 325 325 322 320 318 314 310 307 306 307 308 308 309 310 310 310 310 310 309 309 309 308 308 308 308 307 307 307 307 307 307 307
327 327 327 326 323 322 324 326 328 329 329 330 330 329 328 327 326 326 327 327 326 327 328 329 329 329 328 327 328 329 328 329 328 327 327 328 328 328 328 327 326 325 324 324 324 324 324 325 325 325 325 324 324 323 322 320 318 315 310 306 307 308 309 310 310 310 311 310 311 310 310 310 310 310 310 309 309 309 309 308 308 308 308 308 308
327 326 326 326 323 322 325 325 325 327 328 329 330 331 329 327 325 325 326 326 326 325 326 327 328 328 327 327 328 328 327 328 328 327 327 327 328 328 327 326 325 324 324 323 323 323 324 325 324 323 322 321 321 320 319 318 314 310 308 308 309 310 310 310 310 310 309 309 309 309 309 308 308 308 308 308 308 308 308 308 308 307 307 307 306
327 326 325 325 322 321 322 323 323 325 327 328 329 331 331 329 326 325 325 326 326 325 325 326 327 327 327 327 327 328 327 328 328 328 328 327 327 327 327 326 325 324 324 323 323 323 323 323 322 321 319 319 319 319 317 314 310 308 309 310 309 309 309 308 308 308 307 307 306 306 305 305 305 305 305 305 305 305 305 305 304 304 304 303 303
327 327 325 321 319 320 321 323 325 326 326 327 328 330 331 330 327 327 327 327 326 325 325 325 326 327 326 327 327 327 327 327 327 328 328 327 327 327 326 326 325 324 323 322 322 321 321 320 320 319 317 316 317 318 313 310 309 309 309 309 308 308 307 307 307 306 305 304 304 303 303 302 302 302 302 302 302 302 302 302 302 302 301 301 301
328 328 323 320 322 322 323 324 324 324 325 325 326 327 329 329 330 329 327 327 326 326 327 326 326 326 326 327 328 327 328 327 326 327 327 328 328 326 325 324 323 323 322 321 321 320 320 319 318 318 316 315 315 313 310 309 309 309 309 308 307 307 307 306 306 305 304 304 303 303 303 302 302 302 302 301 301 301 301 301 301 301 301 301 301
328 327 323 324 325 321 320 320 319 320 321 322 323 323 324 327 329 328 326 326 324 326 327 325 325 327 325 326 328 327 327 328 327 327 327 328 328 326 325 324 322 322 320 320 320 319 318 318 317 316 315 314 313 310 309 310 309 309 308 308 307 307 307 306 305 305 304 304 304 304 304 303 303 302 302 302 302 302 302 302 302 302 302 302 302
327 327 325 326 325 321 321 319 316 318 318 320 323 322 321 324 327 327 326 325 323 326 327 325 325 327 325 325 327 327 327 327 327 327 327 327 327 326 324 323 322 321 320 320 319 318 317 317 316 315 315 314 312 311 309 309 308 308 308 307 307 307 307 306 306 305 305 305 305 305 305 305 304 304 303 302 302 302 302 302 302 302 302 302 302
327 326 326 326 325 324 324 320 316 318 319 322 325 323 321 324 325 325 324 324 324 326 327 326 325 326 326 325 327 327 327 327 326 327 326 326 325 324 322 322 321 321 320 320 319 318 317 316 315 315 315 314 312 310 308 308 308 308 308 308 308 308 308 307 307 307 307 307 307 307 307 306 306 305 305 304 303 302 302 302 302 302 302 302 302
327 326 325 325 326 325 324 319 314 316 320 324 325 323 323 324 324 323 322 322 324 325 326 326 326 326 327 326 327 327 327 327 327 327 326 324 323 323 321 321 320 320 320 319 318 317 316 315 314 314 314 312 310 309 308 308 307 308 308 309 309 309 309 308 308 308 309 309 309 308 308 307 307 307 307 306 305 303 302 302 302 302 302 302 302
326 325 326 325 325 325 324 320 314 315 322 325 324 323 324 324 324 324 323 323 324 323 324 326 326 326 326 326 328 327 326 327 327 326 324 323 322 321 320 320 319 318 319 318 317 316 315 315 313 312 312 311 310 310 309 307 307 308 309 309 309 310 310 309 309 309 309 310 310 310 309 309 308 308 309 308 307 305 304 302 302 302 302 302 302
324 324 326 326 325 325 324 320 316 318 323 324 323 324 324 323 323 323 323 323 324 323 324 325 326 327 326 327 328 327 326 326 326 324 323 322 321 320 320 320 319 318 318 317 317 316 315 314 312 312 312 311 312 311 309 307 307 308 310 310 310 310 310 310 310 310 310 309 310 310 310 310 310 309 310 310 309 308 306 304 303 302 302 302 302
324 324 326 326 325 325 323 320 318 321 324 323 323 323 323 322 322 322 322 322 323 324 324 324 326 327 327 328 327 326 326 325 324 324 323 321 321 320 320 319 318 318 318 317 316 316 316 315 312 312 311 311 312 312 310 309 308 309 311 311 310 310 310 310 310 310 309 309 310 311 311 311 310 310 310 310 310 310 309 308 305 303 302 302 302
325 325 326 326 325 324 323 321 319 321 324 323 323 323 322 322 322 321 321 321 321 323 324 324 324 325 326 327 327 326 325 323 323 323 322 321 320 319 319 319 319 319 318 318 317 316 317 316 313 312 312 311 312 312 312 311 309 309 311 311 310 310 310 310 310 310 310 310 310 311 311 311 311 311 311 311 311 311 311 310 308 305 302 302 302
326 326 326 325 325 324 322 320 319 321 323 323 322 322 322 321 321 320 321 321 322 323 323 323 324 324 324 325 325 324 323 322 322 321 321 320 319 319 319 319 319 319 319 319 318 318 318 317 315 313 312 312 312 313 313 312 311 310 311 312 311 310 311 311 311 311 311 310 311 311 311 311 311 311 311 311 311 311 311 311 311 308 304 302 302
325 326 325 324 324 324 322 320 318 320 323 323 321 322 321 320 320 319 319 321 321 321 322 323 323 324 323 324 324 323 323 322 321 321 321 320 320 319 319 319 320 320 320 320 319 319 319 318 316 314 313 313 313 313 313 313 313 312 312 312 312 311 311 312 312 312 312 311 311 311 312 312 312 312 312 312 312 312 312 312 312 310 306 303 301
325 325 324 322 323 323 321 319 317 319 322 322 321 321 320 319 318 317 318 320 320 320 321 321 322 323 323 322 322 323 322 322 321 321 320 320 320 319 319 319 319 320 320 320 320 320 319 319 318 316 315 314 313 313 313 313 313 313 313 313 313 313 313 312 312 312 312 312 311 311 312 312 312 312 312 312 312 312 312 312 312 312 309 304 302
324 323 322 321 322 322 320 318 317 317 320 321 321 320 319 318 317 317 317 319 320 320 320 320 321 321 322 322 322 322 321 321 321 321 320 319 320 319 319 319 319 319 320 319 320 320 320 320 319 318 316 315 314 314 314 313 314 314 314 314 314 314 313 313 313 312 312 312 311 311 311 312 312 312 312 312 312 312 312 312 312 312 311 306 302
322 321 321 321 321 320 319 318 317 316 317 319 320 319 319 318 318 318 319 319 320 320 319 319 320 320 320 320 321 321 321 321 321 320 320 319 319 319 319 319 319 319 319 319 319 320 320 320 320 319 318 316 316 315 315 314 314 314 315 315 314 314 314 314 314 313 312 312 312 311 311 311 311 312 312 312 312 312 312 312 312 312 312 308 303
320 319 320 320 320 319 318 318 318 317 317 318 318 319 318 319 319 320 319 319 319 319 319 319 320 320 320 319 320 320 320 321 321 320 320 320 320 320 319 319 319 319 319 320 319 319 320 320 320 320 319 318 317 316 315 315 315 314 315 315 315 315 315 315 314 314 313 312 312 312 312 311 311 311 311 311 311 311 311 312 312 312 312 309 304
319 319 319 319 320 320 319 318 318 318 318 318 318 318 318 319 319 319 319 319 319 319 319 319 319 320 320 319 320 320 319 319 319 319 319 319 320 321 321 320 320 320 320 320 320 319 319 319 319 319 319 318 318 317 316 316 316 315 315 315 315 315 315 315 315 315 314 313 312 312 312 312 312 311 311 311 311 311 311 311 311 312 311 309 304
320 320 319 319 320 321 320 319 319 318 318 318 318 318 318 319 319 319 319 320 319 319 319 319 319 320 321 321 320 319 317 316 315 315 315 316 318 320 321 320 320 320 320 320 320 319 318 318 318 318 318 318 319 318 317 316 316 316 315 315 315 315 315 315 315 315 315 314 312 312 311 311 311 311 311 311 311 311 310 311 311 311 311 308 304
321 321 320 319 319 320 320 320 319 318 318 318 318 318 319 319 319 319 319 319 319 319 319 320 320 319 320 320 320 317 315 315 315 315 315 316 316 317 318 318 317 318 319 320 320 320 319 319 318 318 318 318 318 318 317 317 316 316 316 316 315 315 315 315 315 315 315 315 314 312 311 311 310 310 310 310 311 311 310 310 311 311 310 307 302
319 320 320 320 320 319 319 320 320 318 317 317 317 317 318 318 319 320 320 319 319 318 319 319 319 319 320 320 320 320 318 317 317 317 317 317 317 317 317 316 316 316 317 318 318 319 319 319 319 319 319 319 319 318 318 317 317 316 316 316 316 315 315 315 315 315 315 315 314 313 312 311 311 310 310 310 311 310 309 310 310 310 309 305 302
316 315 316 317 318 319 319 319 318 316 315 315 314 315 316 317 318 318 319 321 321 319 319 319 319 319 319 319 320 322 321 320 319 319 320 319 318 317 317 317 316 317 317 317 317 317 318 318 318 319 320 320 319 319 318 318 317 317 317 317 316 316 316 316 316 316 315 315 314 313 312 311 311 311 310 310 310 310 309 309 309 309 307 304 301
314 314 313 312 313 315 316 315 314 313 313 312 311 312 313 313 313 313 314 318 320 320 320 319 320 321 321 321 322 322 322 322 321 320 321 321 321 319 318 317 317 317 317 317 317 317 317 318 318 318 318 319 319 319 319 319 318 318 318 318 317 317 316 316 315 315 315 314 314 313 312 312 312 311 311 310 310 309 308 308 309 308 306 303 302
315 314 313 312 313 313 313 312 313 313 312 312 312 312 311 311 310 310 311 313 316 319 320 320 321 322 322 322 322 322 321 322 321 319 319 320 321 321 320 320 319 319 319 318 318 318 318 318 318 318 318 318 318 319 319 318 318 319 319 319 318 318 317 317 316 315 315 314 314 313 313 312 312 311 310 310 309 308 307 307 308 308 305 303 302
316 315 314 313 312 312 311 312 313 311 311 311 311 311 311 310 310 312 314 313 316 320 321 322 322 322 322 322 322 322 321 320 319 319 318 317 318 319 319 319 319 319 319 319 320 319 319 319 318 318 318 318 318 318 318 317 317 318 319 319 319 318 318 317 317 316 315 315 314 314 313 312 312 311 310 309 308 308 307 306 306 306 304 303 301
317 316 315 313 312 311 311 312 312 310 309 309 309 310 310 309 311 315 316 316 319 322 323 323 323 322 322 322 321 321 321 319 318 318 318 317 317 317 318 318 318 317 317 318 319 320 320 319 318 318 317 316 316 315 314 314 315 316 317 317 317 317 317 317 317 316 315 314 314 314 312 312 312 311 310 309 309 308 307 306 305 304 303 302 301
316 316 316 315 314 313 313 314 313 312 311 311 309 309 309 310 313 317 317 318 319 321 321 322 322 321 321 320 319 319 320 319 319 318 318 317 316 316 316 317 317 316 316 317 318 319 318 318 317 316 314 313 312 311 310 311 311 313 315 315 316 316 316 316 316 315 314 313 313 313 311 311 311 310 309 309 309 308 308 306 303 303 302 301 300
317 317 317 317 317 317 317 317 317 315 314 314 313 312 313 315 317 318 318 318 319 319 319 320 319 319 318 318 317 318 317 317 316 316 314 314 313 313 313 314 316 316 316 317 318 318 317 316 316 315 313 311 310 310 309 309 309 310 312 313 314 316 316 316 315 314 313 313 313 312 311 310 310 309 308 308 308 308 307 304 302 302 301 300 299
Wind_Speed
19 18 14 12 12 11 10 10 9 9 11 10 9 9 8 8 8 7 6 7 7 7 7 8 10 9 8 8 8 10 10 10 10 10 6 4 5 2 2 2 1 2 3 3 4 4 4 4 4 5 5 4 4 4 4 4 4 4 5 5 5 5 5 5 5 5 6 6 6 6 7 7 7 8 9 9 10 10 11 11 11 12 11 11 11
18 16 13 13 13 13 11 11 10 9 9 9 8 7 6 6 6 6 5 6 6 7 6 7 9 9 9 8 10 11 10 9 6 9 8 6 6 3 1 1 1 2 3 4 5 5 5 5 6 7 7 7 7 6 5 4 4 3 3 4 4 4 4 5 5 5 5 5 6 6 6 7 7 8 8 9 9 10 10 10 11 11 11 11 11
15 14 13 13 13 12 11 10 9 8 8 8 8 7 6 6 6 6 6 6 5 6 7 6 8 9 9 8 10 10 8 6 6 13 8 7 6 4 2 0 1 2 4 4 5 6 7 8 10 10 10 10 10 9 7 5 4 3 3 3 3 4 4 4 5 5 5 6 6 6 6 7 7 8 8 9 9 10 10 10 11 11 11 12 12
15 13 12 12 11 11 10 9 8 8 8 8 8 7 6 7 8 9 9 8 7 7 7 7 7 8 8 8 9 8 7 5 7 8 4 4 6 6 4 2 1 1 3 4 6 8 9 10 10 9 10 11 12 11 9 7 6 4 3 3 4 4 4 4 5 5 6 6 6 6 6 6 7 7 8 8 8 9 9 10 10 11 11 11 11
15 14 12 11 11 10 9 10 9 9 9 8 8 8 7 7 8 8 8 8 7 7 7 7 7 8 7 6 6 4 4 3 3 4 4 4 6 7 7 5 3 1 2 3 6 8 9 8 7 6 7 9 11 11 11 10 9 7 6 5 5 5 5 5 5 5 5 5 5 5 5 5 6 6 6 7 7 8 8 8 9 9 10 10 11
13 13 12 10 10 10 8 9 9 9 8 8 8 7 7 8 6 6 7 7 6 7 6 6 7 7 6 4 4 4 4 1 2 5 6 7 7 6 8 7 6 4 3 4 5 6 7 7 5 5 5 5 7 10 12 12 12 11 10 9 9 8 8 7 7 6 5 5 4 4 5 5 5 6 6 6 6 7 7 8 9 9 10 10 10
12 12 12 10 9 9 8 9 9 9 8 8 8 7 8 8 6 6 7 6 6 7 6 6 5 5 6 4 4 5 5 3 3 5 6 9 9 8 9 8 7 7 5 4 5 4 4 6 4 4 4 4 5 8 12 14 15 15 15 14 14 13 12 11 10 9 8 7 7 6 5 5 5 5 6 6 7 7 7 8 8 9 9 10 10
12 12 12 10 8 8 8 9 9 9 8 9 8 7 8 8 8 8 7 6 7 7 6 8 8 8 7 4 5 5 3 3 5 7 8 9 9 9 9 8 7 7 5 5 4 3 4 4 4 4 5 5 6 7 9 11 13 13 14 15 14 15 14 14 14 13 13 12 11 10 8 7 6 7 7 7 7 8 8 8 8 9 9 10 10
12 12 11 9 8 8 9 10 9 9 9 10 8 7 8 8 8 8 7 6 7 7 6 7 7 7 4 3 3 2 2 4 6 7 8 8 7 7 8 7 7 6 5 5 4 4 5 5 4 4 4 5 6 6 6 6 6 7 8 10 10 11 11 12 13 13 13 14 13 12 11 9 8 8 8 8 8 8 8 8 9 9 9 10 10
11 11 11 10 8 9 10 9 8 8 8 9 9 8 8 8 8 8 8 7 6 6 6 5 5 4 4 4 3 2 3 5 6 6 6 6 6 7 7 7 7 6 6 5 4 5 6 6 6 5 3 4 5 6 6 4 3 4 4 5 6 7 7 8 9 10 10 11 11 12 12 11 9 9 8 8 8 9 9 9 9 10 10 10 10
10 10 11 10 8 9 10 8 7 8 7 8 9 9 9 8 8 8 8 7 6 6 5 5 5 4 5 4 3 4 6 6 6 6 5 4 5 6 6 7 9 8 7 6 5 5 5 6 7 6 3 3 5 5 5 4 3 3 3 3 4 4 4 4 5 6 7 7 8 9 9 10 10 10 9 9 9 10 10 10 10 10 10 10 9
10 10 10 9 8 9 9 7 8 8 8 9 8 9 10 8 7 7 8 7 6 6 6 5 5 5 6 5 5 6 6 7 7 6 5 4 4 5 5 7 11 10 8 7 6 6 6 6 6 6 4 3 4 4 4 3 2 2 3 2 2 3 2 2 2 3 4 5 5 5 6 7 8 8 8 9 9 10 10 10 10 10 10 9 9
10 10 10 11 10 10 9 8 8 8 9 10 9 9 9 8 7 7 8 7 5 5 6 4 4 5 6 5 5 6 7 7 6 5 5 4 3 4 4 6 9 10 10 9 7 7 6 6 7 7 6 5 4 3 3 2 2 3 3 3 3 2 2 1 1 2 3 3 3 4 5 5 5 6 6 7 8 9 10 10 9 9 10 10 10
10 10 10 11 10 9 9 9 8 8 9 10 9 10 10 9 7 7 7 7 7 6 6 5 4 4 5 6 6 8 9 7 5 5 5 4 3 3 4 6 8 8 9 9 7 7 7 6 7 7 5 5 5 4 3 2 3 4 4 4 4 3 2 1 0 1 1 2 2 3 4 4 3 3 3 4 5 7 8 8 8 8 9 9 9
9 9 8 9 7 7 9 9 9 9 9 9 9 10 11 10 8 7 7 7 7 7 6 7 6 4 5 6 7 8 8 7 6 5 4 4 3 3 4 5 7 8 8 9 7 7 7 6 6 6 5 4 5 4 3 3 4 4 3 4 4 4 3 2 2 2 1 2 2 2 2 2 1 1 2 2 2 4 5 5 5 6 7 7 7
8 8 8 8 7 7 8 9 9 9 9 9 10 11 11 10 9 8 8 6 6 6 6 8 7 6 5 4 5 5 6 8 8 5 4 4 4 4 4 4 6 8 9 8 7 6 7 6 5 4 4 3 4 4 4 4 3 3 3 4 4 5 5 5 5 4 2 3 2 2 2 2 2 2 2 2 2 2 4 3 3 4 5 5 5
8 8 8 8 8 8 8 9 9 8 9 8 9 10 10 10 10 10 9 7 5 6 7 8 8 7 5 3 4 3 4 8 8 5 5 5 4 5 6 5 5 7 9 8 6 5 6 5 4 3 2 2 2 3 3 4 4 4 5 5 5 6 7 8 9 8 7 6 6 5 5 5 4 5 4 2 1 2 2 2 3 3 3 3 4
8 8 8 9 8 8 7 8 9 8 8 8 8 9 9 9 9 9 9 8 7 5 5 6 7 8 6 3 3 2 6 9 8 6 6 5 5 5 6 6 6 6 8 7 6 5 5 5 4 4 3 3 4 3 4 5 5 6 7 7 8 10 12 13 13 12 11 11 11 9 9 9 9 9 9 8 6 5 4 4 6 5 4 5 5
9 8 9 9 8 8 7 7 8 8 7 7 8 8 8 8 8 9 8 7 7 7 6 6 6 7 7 5 3 3 6 9 7 8 8 6 6 6 7 8 7 7 7 6 6 7 7 6 6 5 5 6 7 6 7 8 7 8 10 11 12 12 12 13 12 12 11 11 11 10 10 11 11 11 11 11 10 10 9 8 8 8 7 7 7
9 9 8 8 8 8 8 7 7 7 7 7 8 8 8 8 8 9 9 8 8 7 6 6 6 6 6 6 5 4 4 5 6 8 9 9 9 7 8 6 6 7 7 6 6 8 8 7 6 6 6 8 9 8 8 9 10 12 13 13 12 11 11 12 12 11 11 11 11 12 11 11 11 10 10 10 10 9 9 8 8 7 7 7 7
9 8 8 8 9 8 8 7 7 7 7 7 7 7 8 8 8 9 10 10 9 8 6 6 7 7 7 6 6 6 5 4 4 7 10 11 10 9 8 5 5 5 5 5 6 7 9 8 7 7 7 8 9 7 7 10 13 14 14 13 12 12 12 12 12 11 10 10 11 11 10 10 10 9 9 9 9 8 8 7 7 7 6 6 6
10 9 9 8 8 8 7 7 8 7 7 6 7 7 8 8 8 9 10 10 10 10 9 8 8 8 7 6 7 8 8 6 6 8 9 10 9 9 8 6 6 6 6 7 7 7 8 8 8 9 8 8 8 7 9 12 14 13 14 14 13 13 12 11 10 9 9 9 9 9 8 8 8 8 7 7 7 7 7 7 6 6 6 6 6
11 11 10 8 8 8 7 7 8 7 7 7 6 7 7 7 8 9 9 9 9 10 10 9 8 7 7 7 7 7 7 7 7 7 7 9 11 10 9 8 9 9 8 10 9 8 8 9 10 11 9 9 9 11 13 14 14 14 14 14 13 12 11 10 9 8 8 7 7 7 7 7 6 6 6 6 6 6 6 6 6 6 6 6 7
10 10 10 9 9 9 8 8 7 7 7 7 6 6 6 6 6 7 8 9 9 8 8 8 8 8 8 7 6 6 6 5 7 7 6 10 12 11 10 11 11 11 11 11 11 9 9 10 10 9 9 9 11 13 14 13 13 14 13 13 12 11 9 9 8 8 8 7 7 7 7 7 7 7 7 7 7 6 6 6 6 6 7 7 7
10 9 10 11 11 10 8 7 7 7 7 6 7 7 7 6 6 6 7 8 8 8 8 7 9 9 9 7 6 6 6 5 8 8 7 8 10 10 11 12 12 13 12 12 12 10 9 10 10 9 10 10 11 12 12 13 13 13 12 11 11 10 9 8 8 8 9 9 9 9 9 9 9 8 8 8 7 7 7 7 7 7 7 7 8
11 10 12 12 10 10 8 7 7 7 7 6 7 7 7 6 5 6 6 6 7 8 7 7 9 10 9 8 7 7 6 6 9 9 7 8 9 11 12 12 13 13 12 12 12 11 10 9 9 9 10 10 10 12 12 12 12 11 10 10 9 9 9 9 9 9 10 11 11 11 11 10 10 9 8 8 7 7 7 7 7 7 7 7 7
11 11 13 12 10 11 10 9 9 8 7 6 6 7 7 6 6 6 6 6 6 7 6 7 9 10 10 9 8 8 8 7 8 9 8 8 9 11 13 13 13 13 12 11 11 10 10 9 9 9 10 9 9 10 11 10 10 10 9 8 8 8 8 9 9 9 10 10 11 11 11 10 10 9 8 8 7 6 6 6 6 6 6 6 6
11 12 12 11 11 10 8 9 9 8 9 7 5 6 7 6 6 6 6 6 6 7 6 7 8 9 11 11 9 8 8 7 9 9 9 10 10 11 12 11 12 13 12 12 11 10 9 9 9 9 9 9 9 9 9 8 8 8 7 7 7 7 8 8 8 8 9 9 9 9 9 9 9 9 8 7 6 6 5 5 5 5 5 5 5
12 13 12 10 9 8 7 8 10 10 9 7 5 5 6 6 6 6 6 6 6 7 6 6 8 8 10 12 10 9 8 7 10 10 9 10 11 11 10 9 11 12 11 11 10 9 9 9 9 9 9 8 8 8 7 7 6 5 6 5 5 6 6 6 6 6 7 6 6 6 7 7 7 8 8 7 6 5 4 4 4 4 4 4 4
12 13 12 10 9 9 7 8 10 11 9 7 6 5 5 5 5 5 6 6 6 7 7 6 7 8 10 10 9 10 10 9 10 10 10 11 11 10 9 8 9 9 10 11 10 8 8 8 9 10 10 8 7 7 7 5 4 3 4 4 4 4 4 4 4 4 4 4 4 4 5 5 6 6 7 8 7 6 5 4 3 3 4 4 4
13 13 12 10 10 9 8 7 10 11 10 8 8 7 6 6 6 5 6 6 5 6 6 7 7 8 11 11 8 10 12 10 11 12 12 12 9 7 6 5 7 7 8 10 10 8 8 8 9 11 11 10 10 10 8 5 4 3 4 5 5 4 4 3 3 3 1 1 2 2 3 3 4 5 6 7 8 8 7 6 5 4 4 4 4
13 13 12 11 11 10 8 7 8 10 10 10 9 8 8 7 7 6 6 5 4 4 6 7 8 9 11 12 10 12 14 12 12 14 13 10 8 7 6 6 6 7 7 9 9 9 8 8 9 11 12 11 12 12 10 7 5 5 6 6 6 5 5 5 5 5 4 4 3 3 2 2 3 4 5 6 8 9 9 9 7 6 6 6 5
12 13 12 11 11 10 8 7 8 10 11 10 10 10 9 8 7 7 7 6 5 5 5 6 8 9 10 10 10 12 14 14 13 12 11 9 8 8 7 7 7 6 6 8 11 10 8 9 9 10 12 11 11 12 11 8 6 7 8 7 6 7 7 7 7 7 7 6 5 4 4 3 3 4 5 6 7 9 10 11 10 9 8 7 7
12 12 12 11 11 10 9 8 8 10 11 11 11 10 10 10 9 8 7 7 6 6 6 7 8 8 10 11 12 13 13 13 12 10 10 9 8 8 8 7 7 5 3 6 11 11 9 9 9 10 11 11 11 11 11 10 6 8 10 9 7 7 8 8 8 7 7 7 6 5 5 4 4 5 5 6 8 9 11 12 12 11 10 9 9
12 12 11 12 11 10 10 9 9 10 11 11 11 11 11 11 10 9 9 8 8 7 8 8 9 9 11 12 13 13 12 11 10 9 8 8 7 7 7 6 6 6 3 4 9 11 11 10 10 11 11 11 11 11 12 11 8 7 12 12 9 7 9 10 10 10 8 7 7 7 6 6 6 6 7 8 9 10 12 13 14 13 12 11 10
12 12 11 11 11 11 10 9 9 11 11 11 11 11 11 10 10 10 10 9 9 8 8 9 10 10 11 12 12 12 12 10 9 9 8 7 6 6 6 5 6 6 4 4 7 9 10 10 10 11 11 11 10 11 12 12 10 8 11 13 11 9 10 11 11 13 13 10 9 9 8 8 8 8 9 10 10 11 12 14 15 15 15 13 12
12 12 12 12 11 11 10 10 10 11 11 11 11 10 10 10 9 10 10 10 10 9 8 9 10 10 10 11 10 11 11 10 9 8 7 7 5 5 6 6 5 6 5 5 6 7 8 9 9 10 11 10 10 11 13 14 12 11 12 13 13 12 12 12 13 17 17 14 12 12 10 10 10 11 11 12 13 13 14 15 16 17 16 15 14
12 12 12 12 11 11 11 10 10 10 11 11 11 10 10 9 9 9 10 11 10 9 9 9 9 10 9 10 10 9 9 8 8 7 7 7 5 4 5 6 6 7 6 5 6 7 8 9 10 11 11 11 11 11 12 14 13 12 12 13 13 13 13 13 14 19 21 18 16 15 14 13 13 13 13 14 15 15 16 17 17 18 18 17 16
12 11 11 12 12 11 10 10 10 10 11 11 10 10 10 10 10 10 10 11 10 10 10 9 9 9 9 9 9 8 7 7 7 7 6 6 5 3 5 6 4 4 5 5 6 7 8 9 11 11 11 12 12 11 12 13 13 13 12 12 13 14 14 14 16 19 22 22 20 17 16 16 16 16 16 17 17 18 18 18 18 18 19 19 18
11 10 11 11 11 10 10 10 10 10 10 11 11 11 10 10 10 10 10 10 10 10 9 8 9 9 8 8 8 7 8 9 9 8 7 6 5 3 4 5 3 3 4 5 5 6 7 8 9 11 11 12 14 13 13 13 14 15 15 14 14 15 15 16 17 18 20 23 23 20 18 18 18 18 19 19 20 21 20 20 19 19 19 19 19
11 10 10 11 10 10 10 10 10 11 13 14 15 15 13 12 10 10 10 9 9 9 9 8 8 8 7 8 8 10 11 12 11 9 8 8 8 6 5 5 4 4 4 5 6 6 7 8 9 10 12 13 15 15 14 15 16 16 16 16 16 17 17 17 18 19 18 20 21 21 21 22 22 21 21 22 22 22 22 21 20 19 19 19 20
10 9 9 10 9 8 9 10 12 14 16 17 17 17 16 14 12 10 9 9 9 8 8 7 7 7 7 7 10 12 12 11 10 9 9 9 10 10 9 7 7 6 5 6 6 7 8 9 9 10 12 13 14 14 15 16 16 16 16 17 18 19 18 18 20 20 20 20 20 18 18 22 25 25 24 23 22 21 21 23 23 20 20 20 20
11 10 9 10 10 9 11 13 15 17 17 17 19 19 18 16 14 12 10 9 8 8 7 7 7 7 7 7 8 10 10 10 10 10 10 10 11 12 12 11 10 10 9 8 7 8 8 9 10 10 11 13 13 13 14 15 16 17 18 18 19 20 20 21 22 22 22 24 24 22 20 21 24 26 22 19 19 20 22 24 25 24 22 22 22
13 11 10 13 15 16 16 17 16 17 17 17 19 20 19 18 16 13 9 7 7 7 7 7 7 6 7 7 7 8 9 11 10 10 11 12 12 13 14 14 13 12 12 12 11 10 10 11 12 12 12 13 13 13 14 14 15 16 17 19 20 20 21 22 23 23 24 26 27 26 24 21 22 24 22 17 17 19 23 26 27 26 24 22 22
13 11 10 13 16 17 16 14 13 14 15 16 17 19 19 18 16 13 9 5 6 7 6 7 7 7 7 8 8 8 9 11 11 10 10 12 14 15 15 15 15 14 14 14 14 14 14 14 15 15 14 14 14 14 14 14 15 15 16 18 19 21 22 23 24 24 24 26 27 28 27 23 22 24 24 23 23 23 26 28 27 25 23 22 21
13 12 11 11 13 13 12 10 9 10 10 12 14 15 15 14 13 12 9 7 6 6 6 7 8 8 7 8 9 10 10 12 13 13 12 13 14 16 17 17 16 16 16 16 17 17 17 18 19 20 19 17 17 16 15 16 17 17 18 18 19 21 22 23 26 27 26 28 27 26 26 23 22 25 25 25 26 26 27 28 26 24 24 23 23
12 12 11 11 11 9 8 7 7 8 9 9 10 10 10 11 10 10 10 11 9 8 7 8 9 9 10 10 11 12 14 14 14 14 16 17 17 17 17 17 17 17 18 18 19 20 20 20 20 22 22 21 21 21 19 18 18 18 18 19 19 21 21 24 27 28 29 30 28 28 27 21 21 24 22 20 21 20 21 24 24 23 25 27 27
13 13 12 12 12 10 9 9 9 9 9 9 8 8 8 8 8 10 12 12 10 8 8 9 9 9 10 11 11 12 16 19 19 18 18 19 20 19 19 19 19 19 18 18 19 21 22 21 21 22 23 24 24 24 23 23 22 21 21 20 19 20 20 23 25 25 28 30 30 32 31 25 24 24 20 20 22 19 18 21 23 23 26 28 28
12 13 13 13 13 13 12 12 11 10 11 11 12 12 12 12 12 14 15 13 10 9 9 9 10 11 11 14 15 15 17 19 21 21 21 21 23 23 23 23 24 23 21 19 20 22 22 22 21 22 23 24 25 25 26 26 26 27 27 27 26 23 21 21 22 22 26 29 30 31 29 27 29 30 27 27 27 24 22 23 25 26 26 26 26
11 13 14 14 14 14 14 13 11 11 13 14 16 18 19 18 18 18 16 11 10 11 10 9 11 13 14 17 19 19 19 20 21 22 22 22 23 22 22 23 23 22 20 18 20 22 22 22 23 22 22 23 24 25 25 26 27 29 30 31 31 28 25 24 23 21 22 27 31 29 25 26 31 33 32 29 27 26 25 22 23 26 26 24 25
11 13 15 15 15 15 14 13 12 13 15 16 17 18 20 20 19 18 16 12 12 13 13 11 11 12 12 15 18 19 19 19 19 19 19 19 19 19 19 19 19 19 18 18 19 20 19 20 22 24 24 24 24 26 26 26 27 28 29 31 31 30 28 26 24 22 23 27 31 29 25 27 31 31 30 27 24 25 23 18 18 23 24 23 22
Wind_Direction
164 156 155 165 162 155 155 154 158 173 171 170 174 171 173 175 176 180 179 189 202 206 202 211 225 227 228 216 204 203 196 208 205 174 172 172 150 115 73 60 34 64 83 94 92 99 102 101 96 84 77 68 63 59 56 55 56 63 66 70 74 75 77 73 69 66 65 62 59 59 60 61 59 58 59 60 60 56 53 52 51 51 50 51 49
163 153 158 167 166 163 163 167 171 185 185 175 175 169 172 176 171 173 181 192 203 201 200 210 215 225 242 224 205 211 203 216 206 149 174 194 155 144 125 47 357 47 60 82 90 101 108 106 97 87 81 71 63 58 59 64 68 75 81 87 91 89 85 79 74 72 72 68 64 62 58 57 54 53 52 51 52 51 49 49 47 47 47 48 48
155 148 163 165 165 167 165 174 182 186 180 176 179 174 174 183 177 179 187 190 202 202 198 211 219 217 234 239 212 211 217 207 109 104 145 197 178 181 204 299 8 30 40 73 94 107 115 110 102 95 87 73 63 59 61 69 78 90 103 107 104 94 88 81 78 72 68 62 57 56 53 51 49 48 48 47 47 46 44 44 44 42 42 43 44
153 151 162 158 160 166 165 171 177 182 180 179 187 181 179 197 197 192 192 189 194 204 199 200 230 227 214 236 227 211 220 187 109 99 133 200 209 210 219 231 241 346 33 77 100 115 122 115 108 99 86 74 64 60 60 66 71 79 88 95 96 92 88 77 71 64 58 55 51 50 51 50 48 47 46 46 46 45 43 41 43 42 41 41 41
162 157 156 156 166 165 167 173 173 184 188 186 192 187 188 210 211 202 201 196 195 203 202 194 227 245 220 232 239 217 229 173 142 208 199 209 207 197 214 220 202 162 81 87 97 116 126 119 115 106 90 75 65 60 60 63 67 74 81 85 85 81 78 71 66 63 60 60 57 56 55 54 56 53 50 49 48 48 46 44 43 42 42 42 42
170 163 159 161 169 166 169 177 179 189 194 194 194 191 198 211 207 207 209 203 203 203 202 204 222 241 234 252 254 224 246 236 182 212 194 205 205 193 212 214 198 169 125 95 84 107 126 120 115 109 104 90 74 64 63 68 70 74 78 79 79 76 74 72 71 71 70 71 67 63 60 57 58 60 60 57 56 53 51 48 45 45 44 44 44
175 173 170 164 168 169 171 182 188 190 193 199 194 193 205 204 190 203 210 197 206 208 201 207 215 219 215 236 242 223 240 235 196 197 192 206 211 206 210 207 195 179 160 131 94 93 120 121 118 114 118 115 103 80 73 77 77 77 78 78 79 79 79 78 77 75 73 69 63 59 53 51 50 52 56 56 57 56 53 52 49 47 46 47 48
182 184 179 167 173 176 179 195 199 195 200 204 197 198 208 204 192 198 203 197 205 204 198 200 205 215 212 218 232 221 219 206 194 195 193 198 204 204 202 198 190 182 178 155 117 86 92 116 130 131 130 120 118 105 90 85 79 75 76 78 80 81 82 80 78 75 72 69 66 64 58 54 51 50 51 51 53 53 52 52 51 50 48 48 50
188 191 183 169 180 187 195 207 202 202 210 204 197 201 212 211 204 200 193 197 209 203 198 201 206 216 206 173 202 192 159 193 200 197 189 189 198 198 194 192 185 180 176 158 141 108 85 98 121 129 137 127 124 124 115 97 80 71 68 71 76 78 80 80 78 74 71 68 65 65 64 61 59 58 58 57 56 54 53 51 50 50 49 48 50
190 193 186 173 183 192 207 216 202 211 216 199 196 197 208 210 204 206 198 194 208 206 196 195 195 183 151 155 184 165 164 186 196 190 176 179 187 185 187 182 171 170 167 160 151 122 96 90 101 108 129 141 135 135 136 125 103 96 80 69 66 65 69 71 70 66 64 63 61 60 61 61 62 61 60 60 58 56 55 52 51 51 49 48 49
191 195 190 179 189 198 211 215 200 220 217 194 198 197 201 203 199 209 206 200 202 196 192 194 194 164 148 162 148 136 155 169 182 178 161 171 177 180 185 164 154 159 158 158 152 137 119 99 102 108 119 150 145 140 138 121 103 102 94 77 61 53 55 57 55 54 48 50 53 54 57 59 61 60 60 62 61 59 57 54 53 53 53 51 51
193 198 194 182 192 204 215 208 194 215 206 187 197 199 198 200 200 205 205 209 202 193 198 197 189 163 161 170 134 128 146 151 166 174 162 171 182 185 176 141 139 148 149 148 151 153 138 112 115 121 119 141 146 136 129 112 95 77 64 63 59 47 51 50 42 45 37 39 43 45 52 55 59 61 61 63 63 61 59 56 56 57 57 57 56
195 200 197 190 197 204 212 204 192 205 197 186 193 195 194 194 194 196 199 205 201 197 200 188 175 162 163 168 138 125 132 137 149 158 154 171 202 198 167 132 129 137 142 141 143 152 145 127 126 123 115 116 120 125 129 120 82 53 53 61 69 75 77 50 14 36 40 40 38 39 48 50 52 57 59 62 63 62 60 56 55 56 59 61 63
199 203 201 198 201 198 199 198 193 198 196 191 191 191 193 191 188 192 194 196 199 202 192 177 179 170 154 148 137 127 129 138 144 142 152 173 201 191 152 137 128 126 135 144 146 144 143 135 123 117 113 111 115 119 122 116 76 61 67 66 62 68 71 57 48 63 39 36 41 37 45 49 50 46 40 48 56 58 57 54 51 53 54 59 65
194 200 199 196 197 195 195 195 195 197 198 193 187 191 195 189 184 189 191 193 201 204 191 180 180 178 166 155 144 133 132 141 140 138 150 163 183 175 137 134 138 135 135 139 139 133 133 132 122 117 116 124 131 119 97 94 87 76 69 55 48 50 52 57 79 96 51 40 55 39 35 43 41 22 7 15 38 45 45 42 42 40 37 44 56
190 191 193 195 193 197 199 197 199 198 199 191 187 197 199 189 186 186 185 191 201 201 192 186 186 184 180 172 158 147 146 145 137 129 119 127 161 165 143 136 136 133 130 128 126 130 137 139 137 132 127 137 145 126 98 92 100 102 81 57 47 51 53 53 67 81 71 55 58 46 42 36 5 358 353 346 352 12 23 26 26 17 13 25 37
189 182 193 202 194 198 198 193 197 197 197 191 191 204 201 191 193 188 184 184 191 201 196 193 198 194 189 179 155 156 165 149 136 123 110 113 133 141 141 138 123 121 124 126 130 141 147 144 137 127 105 96 121 125 113 97 92 94 91 74 57 66 72 72 74 74 70 72 75 70 64 58 46 43 38 29 3 355 8 10 13 11 6 12 8
184 179 197 200 189 197 195 187 193 196 201 198 195 205 198 193 199 193 191 189 182 192 201 204 204 194 195 181 131 133 159 154 146 132 117 106 120 126 122 117 108 110 114 119 137 142 137 127 112 103 93 76 83 90 97 100 92 84 87 82 77 84 85 84 82 77 74 75 75 70 67 64 62 62 62 64 66 64 61 52 46 45 42 39 30
186 185 199 193 183 193 192 188 193 195 203 205 202 203 192 190 198 192 194 198 188 185 189 205 206 194 197 184 151 137 148 155 157 146 136 120 119 118 108 108 108 109 111 116 129 122 112 108 103 99 98 96 94 85 86 100 105 98 94 90 88 88 84 84 86 83 78 74 72 72 70 68 67 67 67 68 70 73 73 68 62 58 55 52 49
190 190 196 188 185 192 192 189 193 195 198 202 205 204 193 193 202 195 188 193 199 192 179 196 207 194 196 184 159 129 127 158 164 155 150 138 134 130 116 121 134 130 124 116 112 112 108 105 103 102 97 99 101 96 95 105 112 108 100 94 93 88 83 84 85 84 81 78 78 78 77 75 72 70 70 70 73 75 76 74 70 65 61 57 52
185 190 190 186 189 194 194 189 191 195 191 196 200 199 200 202 209 207 197 195 203 196 177 194 207 193 194 192 166 147 145 167 159 147 151 146 145 146 133 130 138 127 113 101 102 110 112 107 104 105 101 98 99 97 107 119 119 112 104 99 98 95 91 89 88 87 85 84 83 81 80 79 77 74 73 72 71 71 70 70 67 63 60 54 49
185 189 186 186 190 190 195 193 193 189 182 195 195 192 208 213 213 214 208 203 206 203 191 196 205 193 186 185 177 167 157 153 144 139 149 151 148 147 140 127 117 105 92 93 96 104 110 109 105 102 98 98 104 110 118 122 117 110 105 103 101 98 94 91 89 87 84 82 81 80 80 80 79 77 74 72 69 65 63 59 56 53 48 41 36
190 191 181 183 187 184 194 197 196 189 180 193 191 184 202 213 216 214 207 205 207 209 201 194 200 195 184 181 178 175 164 156 151 142 147 147 141 142 139 128 121 113 103 101 102 105 107 102 99 99 104 113 122 121 117 117 114 109 107 104 101 97 93 91 87 84 81 78 77 75 73 71 70 70 69 67 64 59 56 52 47 44 38 32 29
191 191 179 181 188 188 196 196 198 198 188 189 182 177 190 202 211 208 205 204 200 202 196 187 192 194 193 181 162 166 169 158 151 143 137 136 135 139 138 132 127 121 114 108 107 108 105 102 103 106 111 118 121 119 117 117 114 111 108 104 101 97 93 90 85 82 79 74 71 69 66 65 62 62 61 62 62 60 58 54 51 48 44 41 36
185 187 181 183 188 191 192 191 197 200 192 187 179 178 188 194 199 198 202 203 195 195 194 188 186 189 190 173 153 160 156 149 156 146 133 134 136 138 138 135 130 127 128 126 120 117 111 110 114 114 110 113 120 121 120 119 114 111 109 105 101 96 91 88 81 78 76 73 73 69 67 66 64 63 62 62 63 63 63 61 59 57 51 48 43
180 182 185 181 182 188 187 190 200 201 196 195 188 185 185 183 185 191 194 192 190 191 193 188 181 182 183 165 156 154 136 141 153 141 135 143 143 143 139 135 132 129 133 136 131 125 120 118 119 121 122 127 130 125 121 119 115 112 109 104 100 94 91 88 83 81 79 76 74 70 68 65 63 62 60 59 59 58 58 56 51 50 46 42 37
175 180 183 176 181 188 187 197 206 208 207 200 195 191 184 180 183 186 185 182 184 186 191 188 178 178 174 160 156 149 139 149 148 135 140 144 143 148 143 139 139 133 136 142 135 128 128 129 128 129 134 136 131 126 125 122 117 113 110 105 102 101 98 94 89 83 79 74 71 67 63 60 57 55 52 51 50 48 47 45 42 39 35 33 27
173 180 180 175 183 181 181 198 198 204 207 191 188 196 186 181 182 180 180 178 176 178 188 186 175 178 172 164 164 149 144 162 154 141 145 143 142 147 142 142 142 138 143 145 133 131 138 136 135 135 138 141 138 134 130 125 121 117 112 106 105 107 106 99 91 83 77 71 68 65 61 58 54 51 48 45 43 42 40 38 36 34 31 28 22
175 180 177 176 175 160 173 195 185 191 195 173 173 193 181 176 176 176 174 169 169 171 178 179 173 175 170 165 163 150 150 165 153 145 147 143 140 141 141 144 144 143 152 147 134 143 152 146 145 143 148 159 155 147 143 136 133 127 115 110 110 112 112 105 95 87 81 74 68 64 60 59 57 53 51 47 42 40 39 38 36 35 32 27 21
179 179 176 174 166 161 180 189 179 184 180 160 164 173 166 161 157 164 162 158 169 171 167 171 169 166 164 159 152 152 159 158 148 145 142 136 136 144 149 151 152 155 157 150 142 152 159 155 155 153 160 171 159 153 161 153 149 150 133 135 139 133 133 129 120 108 92 78 66 61 56 54 54 51 48 45 41 34 29 29 28 27 26 23 17
180 176 171 170 167 170 182 181 178 181 172 162 163 159 158 152 143 150 151 151 169 172 168 170 169 166 163 158 153 158 163 158 153 148 136 131 136 144 142 135 143 149 145 142 142 149 159 159 157 159 166 166 155 161 177 177 176 180 169 178 185 178 178 179 180 180 162 37 9 15 26 34 35 36 34 30 28 25 19 14 9 10 12 10 8
178 173 169 170 169 171 176 174 174 174 170 167 162 157 160 155 149 154 149 145 154 161 168 170 169 169 162 159 165 165 161 157 152 143 134 133 138 137 131 124 132 138 137 141 144 148 159 161 157 165 171 166 162 173 188 196 193 190 196 205 207 209 216 217 221 229 244 264 277 282 306 346 359 10 19 17 15 14 11 7 0 357 358 356 356
176 172 170 170 169 169 170 169 169 168 168 167 161 159 161 156 156 157 150 150 147 143 155 157 158 162 155 153 162 159 153 150 145 141 138 138 137 134 133 135 141 148 148 147 146 148 160 167 165 170 176 174 173 179 192 209 206 186 198 215 214 222 239 240 235 240 246 248 249 252 267 293 320 339 354 359 1 0 1 2 358 351 348 346 345
176 172 173 172 170 170 168 168 169 169 169 167 164 163 163 161 159 157 155 158 152 142 144 144 144 149 146 145 147 146 145 144 141 142 144 143 143 141 137 138 147 159 162 147 150 156 165 173 175 178 183 183 182 186 199 223 229 187 195 225 233 226 238 247 252 254 240 230 236 247 260 279 300 317 333 340 344 346 348 352 353 349 343 339 338
178 174 176 173 170 171 170 169 170 170 170 170 168 166 167 165 161 160 162 161 155 146 144 145 142 141 142 142 143 143 143 142 141 146 153 157 158 152 147 148 154 165 174 153 159 167 173 179 183 186 189 190 191 195 203 225 247 203 196 227 250 237 223 228 247 263 258 242 247 259 266 274 288 302 314 323 328 332 337 341 344 344 340 335 334
178 177 178 174 172 172 170 169 168 169 172 172 171 171 171 169 169 170 168 164 160 151 146 150 148 143 143 143 144 146 144 142 146 153 160 167 167 161 163 163 164 176 188 184 182 180 177 183 192 196 195 195 200 204 203 215 237 223 202 219 237 232 221 220 233 252 265 267 259 261 270 276 285 295 302 310 316 320 325 329 334 337 336 332 329
178 178 177 173 173 173 170 170 169 169 173 174 173 173 173 171 172 174 171 167 164 157 152 152 151 149 148 147 148 149 148 146 150 156 163 170 169 167 175 178 176 183 190 195 202 202 193 195 203 204 202 201 207 213 209 209 219 220 213 218 223 223 224 224 228 244 260 269 265 264 269 274 282 290 295 301 306 311 315 318 324 329 330 328 324
179 179 176 173 173 173 172 170 169 170 173 174 174 174 174 171 168 168 168 167 165 161 156 150 151 154 152 152 154 154 154 153 157 161 165 173 175 175 194 200 188 183 190 199 205 209 210 207 205 208 212 212 213 218 216 214 219 222 221 225 228 228 227 226 234 247 257 265 269 271 272 275 279 283 288 293 297 302 306 310 315 322 325 325 321
177 177 175 174 172 172 172 170 171 171 170 172 174 173 172 168 164 163 165 165 164 162 159 155 157 157 155 159 160 158 162 167 170 172 170 178 185 185 201 207 190 173 186 200 208 211 214 213 209 213 218 215 216 222 224 224 227 229 231 235 238 235 233 234 240 251 261 268 270 271 270 273 277 280 284 288 291 294 297 301 306 313 321 321 317
173 175 177 176 169 168 171 169 169 168 165 170 173 171 171 170 165 164 163 163 164 162 161 162 161 158 161 165 162 166 178 180 177 176 175 178 181 189 206 209 208 207 204 210 218 217 217 219 218 220 221 219 223 229 232 234 234 233 237 243 245 242 243 243 241 245 259 269 274 276 274 272 273 278 282 284 286 287 289 293 297 305 315 317 313
164 171 176 174 167 166 168 165 163 166 170 176 175 170 170 169 166 166 165 166 169 166 163 165 164 160 163 167 174 188 195 194 191 192 191 183 176 178 190 199 211 225 230 230 230 229 230 233 232 231 230 230 232 233 233 238 240 239 240 244 247 247 249 250 245 243 248 258 266 274 280 282 282 281 281 282 281 281 283 285 289 298 309 311 310
158 165 168 167 166 164 161 162 171 178 181 182 177 172 171 168 167 173 173 171 174 175 175 175 172 172 172 181 199 208 210 210 214 220 218 207 197 191 191 201 208 211 223 236 241 242 243 245 244 242 239 238 239 237 237 240 243 243 243 245 249 251 251 250 249 249 248 246 246 250 263 276 282 283 286 288 286 284 284 286 287 295 306 310 309
155 155 158 162 161 163 172 182 187 186 185 185 180 175 173 170 168 170 175 180 179 179 185 186 187 191 192 203 225 233 232 230 232 235 232 224 218 215 217 225 226 220 219 226 234 242 249 256 255 251 247 246 245 243 243 246 246 245 243 244 250 254 254 252 251 250 247 242 239 239 244 256 267 274 279 280 282 282 278 279 287 296 304 307 307
163 157 164 171 168 168 181 193 195 190 189 191 188 181 176 175 172 163 161 183 193 191 197 199 201 209 208 211 229 240 242 239 236 235 236 234 232 232 236 241 242 239 236 235 238 242 246 253 258 259 258 258 256 252 250 252 254 252 248 246 249 252 253 252 251 252 252 248 244 245 248 246 248 257 259 252 258 268 266 268 280 290 296 299 301
174 170 173 178 177 179 185 193 197 197 195 193 192 189 186 186 185 174 164 180 199 202 211 214 217 225 227 228 230 233 242 245 239 236 242 246 247 246 246 246 246 247 247 248 251 254 253 251 252 255 257 260 263 261 258 258 258 256 251 249 250 251 251 251 251 253 256 254 250 250 254 250 241 245 248 244 245 250 255 264 275 283 288 292 295
176 172 170 173 181 191 198 200 203 204 200 195 195 198 199 199 204 206 204 207 211 215 223 228 233 236 237 241 241 242 247 246 237 236 241 246 252 254 253 254 257 257 257 259 260 260 260 258 257 257 257 259 261 261 259 258 259 258 257 256 253 252 254 254 254 253 252 253 252 251 253 250 241 241 244 245 248 249 253 263 272 279 285 289 294
178 175 175 174 177 186 195 199 200 198 196 195 197 205 210 212 221 232 236 234 234 238 243 242 242 244 245 246 250 255 257 254 251 252 249 245 248 254 256 258 261 260 258 261 264 265 263 263 262 263 263 263 261 260 258 258 259 258 259 259 256 255 257 257 257 257 255 253 252 250 250 247 241 240 238 240 246 246 251 262 271 279 287 293 297
210 204 201 195 190 193 200 203 205 210 210 204 205 214 219 223 241 255 252 248 248 249 251 249 247 250 254 252 253 256 257 259 264 266 260 257 261 266 267 266 268 269 266 264 269 272 271 270 268 267 267 266 264 264 264 264 263 261 261 263 261 260 261 261 261 262 259 255 252 252 253 250 241 235 229 234 243 240 242 257 268 276 284 290 294
218 216 214 210 207 211 217 218 219 229 233 227 226 227 221 227 253 265 257 251 253 251 248 249 249 250 251 250 251 255 258 262 266 268 268 270 272 272 274 276 278 280 278 273 271 272 274 275 274 272 271 269 266 266 268 268 268 266 264 263 260 260 262 261 259 260 260 258 256 254 250 244 240 238 236 243 250 248 246 256 268 275 281 286 289
203 209 211 213 216 219 223 224 224 232 242 243 239 234 230 234 249 256 251 246 246 245 244 250 254 256 258 258 259 264 269 270 271 272 273 274 272 271 275 280 281 281 281 276 273 274 275 275 275 274 272 269 266 265 266 267 268 268 266 263 261 259 258 256 257 259 258 256 257 255 246 240 243 244 245 248 251 252 256 262 269 274 280 285 290
204 207 204 205 209 209 210 214 214 221 234 238 234 230 231 235 241 244 242 239 237 238 241 246 252 258 266 269 267 269 274 274 272 272 273 271 270 271 274 276 276 278 278 274 273 276 277 276 276 275 273 272 269 266 265 265 265 265 265 264 262 257 254 253 255 256 251 251 258 258 247 242 247 248 249 251 251 255 260 261 263 274 284 293 299